User: anonymous   Login
Location: Newark
(48.5667°N, 7.8167°E)
Time: 11:34:28
(UTC+00:00)
Language:

M-CUBED/EXP-1 PRIME - Orbit

View from above orbital plane
View from above orbital plane
View from above satellite
View from above satellite

Ground track
Ground track

The orbit data is extracted from the following two-line orbital elements,

1 37855U 11061F   20184.85368325 +.00000456 +00000-0 +30445-4 0  9997
2 37855 101.7141 281.1970 0170793 029.2638 331.8010 15.06354168473526
Epoch (UTC): 02 July 2020 20:29:18
Eccentricity: 0.0170793
inclination: 101.7141°
perigee height: 429 km
apogee height: 665 km
right ascension of ascending node: 281.1970°
argument of perigee: 29.2638°
revolutions per day: 15.06354168
mean anomaly at epoch: 331.8010°
orbit number at epoch: 47352

The dashed part of the orbit path shows where the satellite is in the earth's shadow,  

DLR